Wind_Speed
6 3 4 3 4 4 7 3 2 3 5 4 5 7 6 7 8 4 6 7 11 13 20 26 26 32 36 36 38 38 35 31
3 4 8 5 5 3 3 3 3 4 4 4 3 3 4 4 7 5 5 8 6 7 21 29 33 35 38 38 41 41 37 35
3 3 2 1 2 6 5 4 5 2 5 5 5 4 4 5 5 5 6 3 4 2 4 27 31 32 36 36 37 35 39 36
3 2 0 2 4 5 5 3 1 4 5 2 5 8 6 6 8 5 6 4 3 1 4 1 24 27 30 30 32 40 41 39
7 6 2 2 3 4 6 3 4 5 5 2 5 11 5 7 6 7 1 4 5 4 4 3 3 23 25 29 36 33 35 37
7 6 3 3 4 4 5 4 4 5 4 4 8 8 1 3 2 6 1 3 4 1 4 8 9 5 16 26 24 25 29 31
4 5 2 4 5 8 8 5 5 4 7 7 10 4 4 4 0 4 3 2 6 4 2 9 9 11 9 4 20 26 28 29
5 4 3 3 3 9 5 5 3 4 6 7 5 2 5 3 5 4 3 2 1 6 5 4 10 7 8 5 4 12 23 29
3 2 3 4 3 4 4 5 7 5 8 5 3 5 5 4 3 4 4 4 3 4 5 7 7 5 4 5 4 3 6 9
3 3 2 7 6 7 5 5 4 4 3 3 2 4 5 5 4 0 3 4 3 1 7 5 8 3 7 10 11 10 14 15
4 4 5 4 4 2 5 2 2 5 5 4 4 2 6 6 4 2 2 2 2 3 4 5 6 6 6 11 20 22 24 27
3 4 4 6 6 3 3 2 4 6 6 6 5 1 5 6 2 3 2 3 2 1 3 4 6 5 6 4 2 9 16 17
3 3 6 6 5 3 2 7 6 7 7 7 5 6 3 3 3 3 3 7 5 3 1 4 7 7 5 5 3 4 7 11
3 3 3 6 4 6 6 2 6 6 7 9 9 4 1 3 5 5 6 5 4 6 7 8 2 7 7 8 8 9 12 13
7 6 5 4 5 3 8 8 6 7 7 9 7 5 4 5 4 5 7 6 5 7 8 9 7 3 8 8 12 12 14 13
3 2 2 2 1 5 3 7 7 7 8 8 6 8 6 5 5 7 10 7 7 7 7 8 7 5 5 4 10 16 17 19
1 3 2 1 3 6 5 2 3 3 5 8 7 6 7 7 7 10 14 12 9 10 6 5 5 6 5 6 9 13 15 16
4 5 4 4 5 6 7 6 8 8 5 7 7 7 6 6 14 17 17 14 11 10 9 6 4 6 8 5 7 12 15 15
5 5 4 2 5 3 6 6 5 7 7 8 10 14 10 5 15 19 16 16 17 14 9 6 6 7 7 7 8 9 12 12
Wind_Direction
60 51 110 174 58 166 102 5 69 252 289 297 151 24 343 121 97 38 303 206 206 220 200 196 195 193 199 202 207 210 213 216
348 33 38 113 148 71 16 144 261 293 288 239 56 316 323 46 79 68 308 208 174 194 212 203 201 200 201 206 208 212 216 219
25 16 179 47 60 51 110 122 171 220 258 223 174 212 215 156 125 86 23 194 165 334 297 210 204 200 200 203 207 211 216 217
194 181 220 120 148 130 121 219 194 150 270 266 208 216 211 255 133 72 101 236 180 326 326 275 204 203 200 200 204 212 216 217
348 353 30 206 149 100 108 83 191 141 262 162 263 245 229 267 311 84 334 139 167 126 61 29 182 201 195 200 214 211 212 215
185 208 158 162 182 169 120 125 178 225 257 284 259 254 337 55 60 86 18 138 152 183 120 100 71 143 199 204 210 206 209 213
219 255 228 218 189 177 200 175 161 245 210 244 236 226 273 103 351 88 123 109 167 163 141 119 97 82 88 167 203 207 211 215
188 312 21 274 307 208 194 144 126 144 252 226 244 225 250 197 189 166 213 204 37 178 163 126 115 114 103 90 91 208 206 210
239 338 346 342 285 274 173 165 147 184 233 159 217 246 281 296 220 171 219 228 153 125 143 213 220 228 181 160 207 233 164 194
181 35 196 239 293 218 138 99 155 121 195 127 129 269 275 226 268 323 206 227 225 233 129 125 110 153 202 228 244 258 249 242
134 169 280 339 310 238 148 28 301 147 125 109 102 28 284 246 221 205 208 195 213 224 190 190 187 182 187 198 215 214 227 226
127 145 193 237 311 110 76 352 176 137 163 155 139 46 269 212 154 142 136 103 162 281 284 270 265 231 219 232 244 229 236 211
145 172 282 237 220 47 95 232 165 161 169 158 193 202 268 98 98 95 81 100 105 75 357 290 257 227 187 131 147 117 178 177
107 109 250 194 138 162 207 212 169 165 186 195 231 250 119 99 97 98 105 96 85 64 41 8 356 182 146 139 154 145 121 123
169 202 231 255 206 194 161 164 193 187 197 203 221 259 140 160 150 139 149 139 103 83 54 33 42 75 132 148 158 164 162 144
94 330 254 248 73 131 168 192 195 203 192 172 184 165 189 165 165 158 164 163 132 85 60 57 47 55 80 107 143 139 133 131
350 297 337 351 117 148 160 183 150 79 166 186 169 193 173 178 195 190 171 172 159 126 102 74 75 82 78 122 150 136 130 134
206 209 155 238 134 150 159 188 179 163 180 198 181 187 177 195 183 179 175 168 148 133 121 96 108 103 107 114 152 146 144 149
187 180 181 81 152 171 175 188 191 188 189 184 198 196 185 188 192 180 180 171 152 148 153 155 141 112 108 110 140 161 161 156
Height
756 756 763 784 806 797 833 840 841 831 810 793 792 796 792 786 784 787 783 781 784 785 787 787 793 795 800 803 807 811 814 818
762 758 766 775 786 812 828 842 844 836 824 821 803 802 796 793 787 785 783 780 780 780 782 782 784 789 794 799 802 805 810 814
776 785 787 791 801 816 822 835 846 846 835 799 796 795 792 788 786 783 779 775 777 778 778 778 780 783 787 794 798 802 805 810
791 778 777 783 794 808 830 829 837 840 829 795 790 787 786 783 773 772 777 775 776 778 777 774 776 779 783 790 794 795 799 804
811 795 783 786 792 805 817 826 832 838 823 789 791 786 786 784 776 766 770 771 775 775 776 775 775 776 779 784 788 792 796 800
821 802 790 794 791 797 806 829 828 823 804 794 786 783 780 782 780 775 780 776 778 778 775 774 774 774 777 781 785 790 793 797
789 786 784 784 784 793 800 802 806 799 805 790 781 780 778 783 782 779 780 778 777 779 777 774 774 776 778 781 783 786 788 793
788 781 779 780 775 781 785 794 792 796 799 777 775 775 776 778 781 779 781 780 778 777 778 777 775 779 779 781 784 784 783 786
798 789 782 794 774 775 777 777 784 799 781 776 778 778 778 774 779 779 779 782 780 778 777 776 777 777 780 779 784 785 782 782
807 797 811 782 766 764 767 771 772 775 775 776 778 777 773 773 776 777 780 780 780 780 778 777 772 775 775 779 776 774 781 781
810 816 798 773 763 763 769 779 770 775 777 778 779 779 776 769 771 776 780 781 781 782 783 781 777 774 774 773 777 774 772 773
813 804 807 785 761 753 756 794 768 772 777 780 782 792 780 769 771 777 779 779 781 782 781 778 775 774 773 775 772 772 773 775
808 804 795 770 757 757 789 794 764 768 774 779 783 778 771 769 774 777 780 781 782 783 782 780 779 775 773 772 774 775 774 774
803 800 794 755 756 772 769 761 760 766 769 773 769 768 770 771 775 777 781 784 784 782 781 778 776 776 775 775 776 775 775 775
779 782 759 751 750 747 752 756 759 760 761 764 767 766 768 772 774 777 781 782 782 781 781 780 778 776 776 776 777 776 776 776
764 756 753 748 746 748 750 750 751 752 754 759 763 767 767 768 771 775 778 779 779 780 781 780 781 779 778 779 778 778 779 780
765 755 752 749 746 748 750 750 751 753 754 756 759 762 764 767 768 770 772 775 776 778 780 781 781 780 782 782 782 782 782 784
766 751 754 752 749 747 750 749 749 751 754 754 756 759 760 764 766 768 771 772 774 776 779 780 781 782 781 783 784 784 785 788
746 743 746 744 747 748 749 747 748 749 750 752 753 755 758 760 763 767 769 771 771 775 780 781 783 783 782 782 784 787 789 790